TimeCDT,TemperatureF,Dew PointF,Humidity,Sea Level PressureIn,VisibilityMPH,Wind Direction,Wind SpeedMPH,Gust SpeedMPH,PrecipitationIn,Events,Conditions,WindDirDegrees,DateUTC
12:51 AM,77.0,72.0,84,29.81,9.0,SSE,20.7,-,N/A,,Overcast,160,2013-05-17 05:51:00
1:36 AM,77.0,71.6,83,29.81,10.0,South,20.7,-,N/A,,Mostly Cloudy,170,2013-05-17 06:36:00
1:47 AM,75.2,71.6,89,29.81,10.0,South,17.3,-,N/A,,Scattered Clouds,170,2013-05-17 06:47:00
1:51 AM,75.9,71.1,85,29.80,10.0,South,18.4,-,N/A,,Scattered Clouds,170,2013-05-17 06:51:00
2:14 AM,75.2,71.6,89,29.80,10.0,South,19.6,-,N/A,,Mostly Cloudy,170,2013-05-17 07:14:00
2:47 AM,75.2,71.6,89,29.79,10.0,South,19.6,-,N/A,,Scattered Clouds,170,2013-05-17 07:47:00
2:51 AM,75.9,71.1,85,29.79,10.0,South,19.6,26.5,N/A,,Scattered Clouds,170,2013-05-17 07:51:00
3:14 AM,75.2,71.6,89,29.78,10.0,South,23.0,27.6,N/A,,Mostly Cloudy,170,2013-05-17 08:14:00
3:48 AM,75.2,71.6,89,29.79,10.0,SSE,16.1,-,N/A,,Mostly Cloudy,160,2013-05-17 08:48:00
3:51 AM,75.9,71.1,85,29.79,10.0,SSE,16.1,-,N/A,,Mostly Cloudy,160,2013-05-17 08:51:00
4:51 AM,75.9,71.1,85,29.80,10.0,South,13.8,-,N/A,,Overcast,170,2013-05-17 09:51:00
5:40 AM,75.2,71.6,89,29.81,10.0,South,12.7,-,N/A,,Overcast,170,2013-05-17 10:40:00
5:51 AM,75.9,71.1,85,29.81,10.0,South,12.7,-,N/A,,Overcast,170,2013-05-17 10:51:00
6:51 AM,75.9,71.1,85,29.83,10.0,SSE,9.2,-,N/A,,Overcast,160,2013-05-17 11:51:00
7:51 AM,77.0,72.0,84,29.84,10.0,South,9.2,-,N/A,,Overcast,170,2013-05-17 12:51:00
8:51 AM,79.0,72.0,79,29.86,10.0,South,15.0,-,N/A,,Mostly Cloudy,170,2013-05-17 13:51:00
9:04 AM,80.6,71.6,74,29.87,10.0,SSE,13.8,-,N/A,,Scattered Clouds,160,2013-05-17 14:04:00
9:51 AM,82.9,72.0,69,29.86,10.0,SSE,17.3,-,N/A,,Partly Cloudy,160,2013-05-17 14:51:00
10:51 AM,88.0,71.1,57,29.87,10.0,SSE,15.0,-,N/A,,Partly Cloudy,150,2013-05-17 15:51:00
11:51 AM,91.0,72.0,53,29.87,10.0,SSE,18.4,25.3,N/A,,Partly Cloudy,150,2013-05-17 16:51:00
12:51 PM,90.0,72.0,55,29.87,10.0,SSE,21.9,31.1,N/A,,Scattered Clouds,150,2013-05-17 17:51:00
1:51 PM,91.9,72.0,52,29.86,8.0,SSE,26.5,32.2,N/A,,Partly Cloudy,150,2013-05-17 18:51:00
2:51 PM,93.0,72.0,50,29.83,7.0,SSE,25.3,32.2,N/A,,Clear,150,2013-05-17 19:51:00
3:51 PM,93.2,71.6,49,29.83,7.0,SSE,20.7,-,N/A,,Clear,150,2013-05-17 20:51:00
4:51 PM,93.0,70.0,47,29.81,8.0,SSE,24.2,31.1,N/A,,Clear,150,2013-05-17 21:51:00
5:51 PM,93.0,66.0,41,29.80,10.0,SSE,23.0,-,N/A,,Clear,150,2013-05-17 22:51:00
6:51 PM,87.1,68.0,53,29.81,10.0,SE,25.3,29.9,N/A,,Clear,130,2013-05-17 23:51:00
7:51 PM,82.9,71.1,67,29.83,10.0,SE,20.7,-,N/A,,Clear,140,2013-05-18 00:51:00
8:24 PM,80.6,73.4,79,29.84,9.0,SE,21.9,-,N/A,,Partly Cloudy,140,2013-05-18 01:24:00
8:51 PM,80.1,73.0,79,29.85,10.0,SE,19.6,28.8,N/A,,Partly Cloudy,140,2013-05-18 01:51:00
9:46 PM,78.8,73.4,83,29.87,10.0,SSE,21.9,26.5,N/A,,Mostly Cloudy,150,2013-05-18 02:46:00
9:51 PM,79.0,73.0,82,29.88,10.0,SSE,19.6,26.5,N/A,,Mostly Cloudy,150,2013-05-18 02:51:00
10:18 PM,78.8,73.4,83,29.89,10.0,SSE,18.4,25.3,N/A,,Overcast,160,2013-05-18 03:18:00
10:51 PM,79.0,73.0,82,29.89,10.0,SSE,19.6,25.3,N/A,,Overcast,150,2013-05-18 03:51:00
11:51 PM,79.0,73.0,82,29.90,10.0,SSE,17.3,-,N/A,,Mostly Cloudy,150,2013-05-18 04:51:00